CEB5065 RJAA-RPVM

Flight info

Callsign CEB5065
Flight time N/A
Altitude 34000
Route SAMUS Y84 BUBDO A590 GURAG G578 TAC DCT LARYO LARYO3P
Aircraft A21N/M-SDE2E3FGHIJ1RWXY/LB1

Departure

Time N/A
Airport Narita International Airport (RJAA)

Arrival

Time 2026-05-05 12:50
Airport Mactan Cebu International Airport (RPVM)
Time Latitude Longitude Altitude Speed Heading
2026-05-05 12:33 10.88062 124.15115 18910 ft 457 kts 223°
2026-05-05 12:33 10.85764 124.12879 18293 ft 451 kts 223°
2026-05-05 12:34 10.83498 124.10670 17673 ft 447 kts 223°
2026-05-05 12:34 10.81265 124.08485 17055 ft 444 kts 223°
2026-05-05 12:34 10.79060 124.06317 16436 ft 441 kts 223°
2026-05-05 12:34 10.76849 124.04138 15806 ft 439 kts 223°
2026-05-05 12:35 10.74656 124.01974 15184 ft 436 kts 224°
2026-05-05 12:35 10.72486 123.99831 14572 ft 433 kts 224°
2026-05-05 12:35 10.70345 123.97715 13964 ft 430 kts 224°
2026-05-05 12:35 10.68198 123.95596 13360 ft 427 kts 224°
2026-05-05 12:36 10.66065 123.93494 12755 ft 423 kts 224°
2026-05-05 12:36 10.63956 123.91415 12146 ft 421 kts 223°
2026-05-05 12:36 10.61861 123.89349 11546 ft 418 kts 223°
2026-05-05 12:36 10.59796 123.87317 11043 ft 411 kts 223°
2026-05-05 12:37 10.57764 123.85319 10813 ft 397 kts 223°
2026-05-05 12:37 10.55812 123.83404 10613 ft 383 kts 223°
2026-05-05 12:37 10.53922 123.81548 10436 ft 370 kts 223°
2026-05-05 12:37 10.52104 123.79761 10336 ft 354 kts 223°
2026-05-05 12:38 10.50374 123.78057 10245 ft 340 kts 223°
2026-05-05 12:38 10.48717 123.76424 10160 ft 326 kts 223°
2026-05-05 12:38 10.47120 123.74851 10076 ft 313 kts 223°
2026-05-05 12:38 10.45559 123.73314 9838 ft 306 kts 223°
2026-05-05 12:39 10.44043 123.71821 9488 ft 304 kts 223°
2026-05-05 12:39 10.42522 123.70323 9150 ft 301 kts 223°
2026-05-05 12:39 10.41024 123.68851 8814 ft 299 kts 222°
2026-05-05 12:39 10.39522 123.67375 8480 ft 297 kts 222°
2026-05-05 12:40 10.38036 123.65917 8148 ft 294 kts 223°
2026-05-05 12:40 10.36531 123.64547 7781 ft 292 kts 211°
2026-05-05 12:40 10.34656 123.63917 7426 ft 281 kts 177°
2026-05-05 12:40 10.32803 123.64359 7195 ft 267 kts 149°
2026-05-05 12:41 10.31383 123.65524 6958 ft 257 kts 132°
2026-05-05 12:41 10.30159 123.66820 6691 ft 253 kts 131°
2026-05-05 12:41 10.28943 123.68111 6429 ft 249 kts 131°
2026-05-05 12:41 10.27738 123.69367 6172 ft 245 kts 132°
2026-05-05 12:42 10.26546 123.70593 5906 ft 241 kts 132°
2026-05-05 12:42 10.25383 123.71782 5643 ft 237 kts 132°
2026-05-05 12:42 10.24222 123.72965 5382 ft 233 kts 132°
2026-05-05 12:42 10.23089 123.74118 5125 ft 229 kts 132°
2026-05-05 12:43 10.21974 123.75253 4866 ft 226 kts 132°
2026-05-05 12:43 10.20861 123.76383 4612 ft 222 kts 132°
2026-05-05 12:43 10.19791 123.77470 4425 ft 212 kts 132°
2026-05-05 12:43 10.18769 123.78507 4150 ft 207 kts 132°
2026-05-05 12:44 10.17754 123.79536 3860 ft 201 kts 132°
2026-05-05 12:44 10.16808 123.80542 3599 ft 193 kts 123°
2026-05-05 12:44 10.16334 123.81744 3478 ft 184 kts 95°
2026-05-05 12:44 10.16484 123.83015 3409 ft 182 kts 68°
2026-05-05 12:45 10.17186 123.84078 3292 ft 181 kts 47°
2026-05-05 12:45 10.18065 123.84964 3110 ft 169 kts 44°
2026-05-05 12:45 10.18872 123.85744 3047 ft 153 kts 44°
2026-05-05 12:45 10.19633 123.86489 2949 ft 150 kts 45°
2026-05-05 12:46 10.20369 123.87222 2738 ft 148 kts 45°
2026-05-05 12:46 10.21105 123.87963 2535 ft 147 kts 46°
2026-05-05 12:46 10.21827 123.88693 2342 ft 147 kts 46°
2026-05-05 12:46 10.22567 123.89441 2159 ft 154 kts 46°
2026-05-05 12:47 10.23343 123.90226 1946 ft 158 kts 46°
2026-05-05 12:47 10.24118 123.91009 1725 ft 157 kts 46°
2026-05-05 12:47 10.24900 123.91796 1503 ft 153 kts 46°
2026-05-05 12:47 10.25640 123.92541 1297 ft 148 kts 46°
2026-05-05 12:48 10.26369 123.93275 1099 ft 143 kts 45°
2026-05-05 12:48 10.27045 123.93954 928 ft 142 kts 45°
2026-05-05 12:48 10.27734 123.94647 741 ft 142 kts 46°
2026-05-05 12:48 10.28433 123.95335 551 ft 141 kts 45°
2026-05-05 12:49 10.29141 123.96039 339 ft 141 kts 46°
2026-05-05 12:49 10.29843 123.96746 169 ft 141 kts 45°
2026-05-05 12:49 10.30538 123.97457 41 ft 135 kts 43°
2026-05-05 12:49 10.31113 123.98031 37 ft 93 kts 45°
2026-05-05 12:50 10.31453 123.98374 37 ft 42 kts 44°
2026-05-05 12:50 10.31578 123.98499 37 ft 21 kts 45°
2026-05-05 12:50 10.31636 123.98551 37 ft 5 kts 18°
2026-05-05 12:50 10.31675 123.98539 37 ft 7 kts 313°
2026-05-05 12:51 10.31700 123.98508 37 ft 4 kts 290°
2026-05-05 12:51 10.31692 123.98474 37 ft 6 kts 234°
2026-05-05 12:51 10.31657 123.98438 37 ft 8 kts 223°
2026-05-05 12:51 10.31611 123.98393 37 ft 10 kts 226°
2026-05-05 12:52 10.31557 123.98337 37 ft 12 kts 225°
2026-05-05 12:52 10.31501 123.98280 37 ft 5 kts 225°
2026-05-05 12:52 10.31491 123.98269 37 ft 6 kts 232°
2026-05-05 12:53 10.31571 123.98130 37 ft 6 kts 280°
2026-05-05 12:53 10.31549 123.98087 37 ft 8 kts 226°
2026-05-05 12:53 10.31505 123.98042 37 ft 4 kts 226°
2026-05-05 12:54 10.31460 123.97993 37 ft 2 kts 252°
2026-05-05 12:54 10.31469 123.97971 37 ft 3 kts 309°
2026-05-05 12:54 10.31483 123.97955 37 ft 2 kts 313°
2026-05-05 12:55 10.31493 123.97944 37 ft 0 kts 313°
2026-05-05 12:55 10.31498 123.97938 37 ft 1 kts 314°
2026-05-05 12:55 10.31501 123.97935 37 ft 0 kts 314°
2026-05-05 12:56 10.77687 124.04906 16760 ft 396 kts 224°
2026-05-05 12:56 10.26393 123.93298 1092 ft 144 kts 45°